Simultaneous Nadir Overpasses (SNOs) Predictions

Prediction of SNOs between NOAA-20 and AQUA Satellite Orbit:

Table of predicted SNOs for the next 14.0 days since TLE Epoch: 3/23/2018
Index Date (NOAA-20) Time (NOAA-20) Lat,Lon (NOAA-20) SZA (NOAA-20 ) Date (AQUA) Time (AQUA) Lat,Lon (AQUA) SZA (AQUA ) Distance(km) Time Diff (sec)
1 03/25/2018 22:17:01 62.95, 64.28 109.41 03/25/2018 22:18:14 62.71, 65.67 109.09 75.38 73
2 03/25/2018 23:03:19 -76.84,-103.96 85.55 03/25/2018 23:03:21 -76.84,-103.89 85.57 2.04 2
3 03/25/2018 23:52:32 80.20, 85.09 89.34 03/25/2018 23:51:18 80.42, 84.52 89.45 26.52 74
4 03/28/2018 14:29:35 76.47,-156.92 93.87 03/28/2018 14:30:29 76.46,-156.97 93.83 1.36 54
5 03/28/2018 15:20:04 -77.20, 13.33 87.09 03/28/2018 15:19:41 -77.21, 13.35 87.08 0.53 23
6 03/31/2018 06:46:20 76.89, -39.53 92.28 03/31/2018 06:46:49 76.88, -39.64 92.28 2.87 29
7 03/31/2018 07:36:50 -77.56, 130.71 88.62 03/31/2018 07:36:02 -77.56, 130.65 88.57 1.74 48
8 04/02/2018 22:18:10 -59.06,-118.65 69.89 04/02/2018 22:19:22 -58.83,-117.04 70.33 96.07 72
9 04/02/2018 23:03:13 76.95, 76.49 91.15 04/02/2018 23:03:16 76.95, 76.52 91.14 0.92 3
10 04/02/2018 23:53:43 -77.63,-113.23 89.76 04/02/2018 23:52:29 -77.63,-113.17 89.71 1.33 74
11 04/05/2018 14:29:35 -76.44, 22.97 89.24 04/05/2018 14:30:30 -76.44, 22.96 89.28 0.38 55




NCC Satellite Simultaneous Nadir Overpasses (SNOs) Prediction Service
